Regional Weather Roundup
Issued by NWS

Home | Current Version | Previous Version | Graphics & Text | Print | Product List | Glossary On
Versions: 1 2 3 4 5 6 7 8 9 10 11 12 13 14 15 16 17 18 19 20 21 22 23 24 25 26 27 28 29 30 31 32 33 34 35 36 37 38 39 40 41 42 43 44 45 46 47 48 49 50
000
ASUS44 KMEG 031810
RWRTN
TENNESSEE HOURLY STATE WEATHER ROUNDUP
NATIONAL WEATHER SERVICE MEMPHIS TN
100 PM CDT THU SEP 03 2015

TNZ002-004-019-021-049-052-054-088>092-031900-
WEST TENNESSEE

CITY           SKY/WX    TMP DP  RH WIND       PRES   REMARKS
MEMPHIS INTL   MOSUNNY   90  69  50 CALM      30.01F HX  94
NWS MEMPHIS      N/A     89 N/A N/A MISG        N/A
JACKSON        SUNNY     90  70  51 S3        30.00F HX  95
DYERSBURG      SUNNY     88  70  55 NE5       30.01S HX  92
UNION CITY     SUNNY     90  72  55 VRB3      29.99F HX  96
PARIS          SUNNY     88  66  48 E6        30.01F HX  90
LEXINGTON      SUNNY     90  70  51 VRB3      30.00S HX  95
$$

TNZ008-025-027-028-033-062-065-066-031900-
NORTH MIDDLE TENNESSEE

CITY           SKY/WX    TMP DP  RH WIND       PRES   REMARKS
NASHVILLE      MOSUNNY   92  61  35 E5        30.01F HX  92
CLARKSVILLE    SUNNY     92  65  40 VRB3      30.00F HX  94
SMYRNA         MOSUNNY   96  65  35 SE5       30.01F HX  98
COOKEVILLE     MOSUNNY   88  70  55 VRB6      30.02F HX  92
CROSSVILLE     MOSUNNY   84  63  49 NE6       30.08F
$$

TNZ061-075-076-078-094-096-097-031900-
SOUTH MIDDLE TENNESSEE

CITY           SKY/WX    TMP DP  RH WIND       PRES   REMARKS
FAYETTEVILLE   SUNNY     86  66  51 CALM      30.02F
TULLAHOMA      PTSUNNY   86  66  51 N7        30.04F
WINCHESTER     SUNNY     90  68  48 N3        30.02F HX  93
MCMINNVILLE    SUNNY     88  72  58 E6        30.03F HX  94
COLUMBIA       SUNNY     91  70  49 VRB3      30.00F HX  97
SHELBYVILLE    SUNNY     90  70  51 N6        30.03S HX  95
$$

TNZ017-018-042-046-047-031900-
NORTHEAST TENNESSEE

CITY           SKY/WX    TMP DP  RH WIND       PRES   REMARKS
TRI CITIES     MOSUNNY   87  65  47 N5        30.04F
ELIZABETHTON   PTCLDY    82  64  54 VRB3      30.05F
$$

TNZ012-013-036-069-073-074-031900-
CENTRAL EAST TENNESSEE

CITY           SKY/WX    TMP DP  RH WIND       PRES   REMARKS
KNOXVILLE      MOSUNNY   89  65  44 NE10G17   30.01F HX  91
OAK RIDGE      SUNNY     90  63  40 VRB5      30.03F HX  91
GATLINBURG       N/A     90  61  37 E6        30.01F
MORRISTOWN     CLEAR     88  64  45 E7        30.04F
$$

TNZ083-085-099-031900-
SOUTHEAST TENNESSEE

CITY           SKY/WX    TMP DP  RH WIND       PRES   REMARKS
CHATTANOOGA    MOSUNNY   89  67  47 N8        30.01F HX  92
$$

SKY/WX REPORTED AS FAIR MEANS FEW OR NO CLOUDS BELOW
12 THOUSAND FEET.



USA.gov is the U.S. government's official web portal to all federal, state and local government web resources and services.